Location: Unspecified
(0.0000°N, 0.0000°E)
Time: 19:35:53
(UTC+00:00)

Vanguard 1 Rocket - Pass Details

Date: 16 April 2026
Orbit: 655 x 4212 km, 34.3° (Epoch: 17 May)

Event Time Altitude Azimuth Distance (km) Brightness Sun altitude
Rises 03:35:24 0° 319° (NW) 6,974 11.7 -35.5°
Reaches altitude 10° 03:42:37 10° 334° (NNW) 5,197 11.1 -33.7°
Maximum altitude 03:51:40 20° 15° (NNE) 3,341 10.5 -31.5°
Drops below altitude 10° 03:57:43 10° 60° (ENE) 3,321 11.1 -30.0°
Sets 04:00:54 0° 78° (ENE) 3,890 11.9 -29.2°
